Theta_e
326 327 328 328 329 329 329 329 329 330 331 332 332 332 332 332 331 329 329 329 329 328 327 326 324 325 324 322 322 322 327 329 328 327 328 329 330 330 331 330 329 330 333 331 330 333 335 334 335 335 334 334 333 333 333 332 332 331 330 329 329 328 328 326 325 325 324 324 322 322 323 326 328 329 327 328 328 328 327 328 328 327 326 326 328
325 324 325 326 326 327 327 328 328 327 328 328 328 328 328 328 327 327 327 328 328 328 329 330 329 326 324 324 324 323 326 326 327 328 329 329 329 329 330 330 330 330 332 332 332 332 332 333 333 334 334 333 333 334 334 334 333 331 330 329 328 329 328 326 325 325 322 321 320 320 321 323 325 328 328 328 328 329 328 326 327 326 326 326 328
321 322 323 323 324 324 324 325 325 326 325 325 327 327 327 327 327 327 328 327 328 331 327 326 328 330 328 324 325 326 326 327 327 328 329 328 328 329 330 330 329 330 331 332 332 332 331 330 330 331 332 333 332 332 333 332 332 331 330 328 328 327 326 326 326 327 324 320 321 320 318 317 319 322 325 327 328 329 329 327 326 325 326 327 328
318 319 320 322 322 322 323 323 323 324 323 323 325 325 325 326 325 326 326 327 327 329 330 327 330 327 327 327 328 327 328 329 327 328 328 328 327 328 330 330 330 329 329 329 330 328 329 329 330 331 331 332 332 331 331 330 331 330 329 329 328 325 326 326 328 326 326 324 318 318 317 316 315 317 318 322 327 328 328 327 328 327 326 327 327
317 318 319 319 320 320 320 321 322 321 322 322 322 323 323 323 324 325 325 325 325 327 327 327 327 324 325 325 325 323 324 325 325 325 326 327 327 327 328 329 329 329 330 330 330 329 328 328 328 330 332 333 332 331 330 330 330 330 330 328 327 325 324 326 325 327 326 327 324 318 316 314 315 318 317 321 324 325 327 328 328 328 328 327 326
317 317 317 318 318 319 320 320 320 321 321 323 323 322 321 322 323 323 323 324 324 325 326 325 324 323 322 321 320 320 320 321 321 321 323 323 324 326 327 328 328 327 327 328 328 330 329 329 328 329 330 332 333 332 331 330 329 330 330 329 328 328 326 325 324 327 327 327 326 326 324 318 317 319 318 314 321 325 326 327 328 329 329 328 328
317 317 317 317 317 318 318 318 320 319 321 322 322 321 321 321 321 322 323 323 324 324 324 324 321 321 321 321 320 319 319 320 322 323 322 323 324 324 325 326 326 325 324 325 326 327 327 329 329 329 330 331 333 332 330 330 330 330 331 329 328 328 327 324 324 325 326 326 326 326 325 325 324 319 315 317 314 319 322 324 326 328 329 329 329
315 315 316 317 317 316 316 318 319 319 320 321 320 320 319 320 320 320 320 321 321 323 323 323 320 319 319 320 322 320 320 319 321 321 322 324 321 321 322 323 323 323 321 320 322 323 324 325 327 328 329 330 331 331 330 331 330 330 331 331 330 330 328 326 325 326 323 324 326 324 325 326 326 324 322 318 316 314 317 322 325 327 328 329 329
315 315 315 315 315 315 316 316 318 319 319 318 318 318 318 318 319 319 318 318 318 320 321 320 322 320 319 319 317 319 320 319 320 320 319 320 317 318 319 319 320 320 318 318 318 319 321 322 323 323 323 325 328 328 329 330 330 329 329 330 329 329 329 329 327 325 326 325 325 324 324 324 325 325 324 323 317 315 315 317 319 324 326 328 328
315 315 315 315 315 315 316 316 315 316 317 318 317 317 316 316 316 316 316 317 317 317 318 318 317 317 315 315 314 314 315 315 315 314 314 315 314 314 315 315 316 316 316 314 315 316 318 319 317 317 317 319 320 320 321 323 326 327 329 329 330 328 329 329 327 327 327 327 326 325 323 323 322 322 322 321 320 319 315 317 319 319 318 323 327
313 313 314 314 315 315 315 314 315 315 315 316 315 315 316 315 315 314 314 314 315 315 315 315 315 315 314 313 313 312 312 311 310 309 310 310 309 310 311 312 312 312 312 312 312 314 317 315 312 312 314 314 313 314 315 316 319 322 325 328 329 328 328 328 328 328 327 326 326 325 324 323 322 320 321 322 320 318 317 318 319 320 320 320 324
312 312 312 312 312 313 314 313 313 314 313 313 314 314 314 314 313 312 312 312 312 313 312 312 312 312 312 312 311 310 310 309 307 306 307 306 307 306 308 308 308 309 309 308 310 312 312 310 310 309 309 310 309 310 310 309 313 317 320 322 324 327 328 328 327 326 327 327 327 327 326 326 325 323 323 323 321 320 319 318 319 321 321 322 324
311 311 311 312 311 311 311 311 312 312 312 312 313 313 313 312 311 310 310 310 310 311 310 310 310 309 309 308 309 310 308 307 306 305 305 305 305 304 304 304 305 305 306 306 308 309 307 307 306 305 306 307 306 306 306 306 308 312 313 314 316 318 319 320 324 326 327 326 326 327 327 326 325 326 326 324 324 323 321 318 320 322 318 320 323
310 311 311 311 311 311 311 311 311 311 310 311 312 312 311 311 310 309 309 310 310 309 309 308 308 307 307 307 307 307 307 306 305 304 304 304 304 303 303 303 303 304 305 305 307 309 305 305 305 304 303 303 304 303 303 304 305 307 309 309 310 312 312 314 317 320 324 327 327 326 326 326 326 327 326 325 324 322 320 319 319 320 321 319 323
310 310 310 310 310 310 310 311 310 309 309 310 310 310 310 310 310 309 309 309 308 308 307 306 306 306 306 306 307 307 306 305 305 305 303 302 302 302 302 303 303 303 304 305 306 308 306 303 303 302 302 302 302 301 301 301 302 304 305 306 306 307 307 310 312 314 316 319 322 325 326 326 326 327 327 326 325 324 322 321 319 316 317 319 318
309 309 309 309 310 310 310 309 309 309 309 310 310 310 309 309 308 308 307 306 307 307 305 305 305 306 305 305 305 307 307 305 304 304 303 303 302 302 302 302 302 303 304 304 304 306 306 303 302 301 301 300 300 300 300 299 300 301 301 302 303 305 305 306 307 309 311 313 316 320 322 323 326 327 327 327 326 325 324 324 323 320 315 314 318
308 308 308 308 309 309 309 308 307 308 308 308 309 309 309 308 307 306 306 305 305 306 305 305 305 304 304 304 304 304 303 303 302 302 302 303 302 302 301 301 302 302 302 303 303 305 305 302 300 299 299 299 299 299 299 298 298 299 299 299 300 301 302 302 303 305 306 308 310 313 316 319 323 325 326 326 326 326 325 325 324 322 320 316 314
308 308 308 308 307 307 306 305 305 306 308 308 308 309 308 308 307 306 305 304 304 305 305 304 304 304 304 303 303 303 303 303 303 302 302 302 302 302 301 301 301 301 302 302 302 303 301 301 299 298 298 298 298 298 298 297 297 297 298 298 299 299 299 300 301 302 302 304 305 307 310 313 317 321 323 325 325 325 325 325 325 325 324 319 317
306 305 305 305 304 304 304 305 306 307 308 308 308 308 307 307 306 305 304 303 304 305 304 304 305 304 304 304 303 303 303 303 303 303 303 302 301 301 301 301 301 301 301 301 301 301 300 299 299 298 298 297 297 297 297 296 297 296 297 297 298 298 298 298 299 300 301 302 302 303 305 307 309 312 315 319 324 325 325 325 325 325 324 322 320
305 304 304 303 303 304 305 305 306 306 307 307 307 307 306 306 305 304 303 303 303 303 303 302 303 303 303 303 303 304 305 304 304 302 302 302 302 301 301 300 300 301 300 300 301 300 300 299 298 298 297 297 296 297 297 296 296 296 296 296 297 298 298 298 299 300 301 301 301 301 303 304 306 308 309 313 317 322 324 324 324 323 323 323 322
304 303 302 303 303 303 304 304 305 306 307 307 306 305 305 305 303 303 302 302 301 301 302 301 302 301 302 301 301 302 302 304 304 305 303 302 302 303 301 301 301 300 299 299 300 300 299 299 298 297 296 296 296 296 296 296 296 295 296 297 297 298 297 298 299 299 300 301 301 301 302 304 306 306 308 310 313 316 320 322 323 323 322 323 322
302 303 302 302 302 302 302 303 304 305 305 305 305 305 304 304 303 302 301 301 301 301 301 300 301 300 300 300 300 301 301 301 301 301 302 302 302 301 302 301 300 300 300 298 298 299 299 298 297 296 296 295 295 295 295 295 295 295 295 296 297 297 297 298 299 298 299 300 301 301 302 303 305 306 307 309 312 314 315 316 318 321 321 322 325
302 302 302 301 301 301 301 301 301 301 303 304 305 304 303 303 302 301 301 300 300 300 300 300 300 300 299 300 300 300 300 300 299 300 299 300 300 300 301 299 299 299 299 299 298 298 298 297 297 296 295 295 295 295 295 294 294 294 294 295 296 297 297 297 298 298 299 300 300 301 302 303 305 305 307 308 308 308 308 307 309 312 315 319 323
301 301 301 301 301 300 300 299 299 300 301 303 303 303 303 302 301 300 300 300 300 300 301 300 300 299 299 299 299 299 299 298 298 299 299 299 299 299 301 298 298 298 297 298 298 297 297 297 296 295 295 294 294 294 294 294 294 294 294 295 296 296 297 297 297 297 298 299 299 299 300 301 302 303 304 304 304 303 303 304 304 305 307 310 317
299 300 300 299 299 298 298 297 297 299 301 302 302 302 301 300 300 300 300 300 300 300 300 299 299 298 298 298 298 298 298 298 298 298 298 298 298 298 300 299 298 297 297 297 297 298 296 296 295 295 295 294 294 294 294 293 294 294 295 295 296 296 297 297 297 297 299 297 298 298 299 299 300 301 302 301 301 300 301 301 301 302 303 305 308
299 299 298 298 298 297 297 297 297 298 300 300 300 300 300 299 299 299 299 299 299 300 299 299 298 298 297 297 297 297 297 298 299 298 298 298 298 298 298 298 298 296 297 297 296 296 297 295 295 295 295 294 294 294 294 293 294 294 294 295 296 296 296 297 297 297 296 297 297 297 298 298 299 300 300 299 299 298 299 298 298 298 300 301 302
298 298 297 296 296 296 296 296 296 297 298 298 298 298 298 298 298 298 299 298 298 298 297 297 297 296 296 296 296 296 297 297 297 297 298 297 297 297 297 297 298 297 296 296 296 295 296 295 295 295 295 294 294 294 293 293 293 293 294 294 294 295 296 296 297 296 296 296 297 297 297 297 298 299 299 298 297 297 297 296 297 296 297 297 298
298 297 296 295 294 294 295 295 295 296 296 296 297 297 297 297 297 297 298 297 297 296 295 295 295 294 294 294 295 296 296 297 297 297 297 297 296 296 296 297 297 296 296 295 295 295 295 295 295 294 295 295 294 293 293 293 293 293 293 293 294 294 294 295 296 296 296 296 296 296 296 296 297 299 298 298 297 296 295 295 295 295 295 295 296
296 296 295 294 294 294 294 294 295 295 295 295 296 296 296 296 296 296 296 296 296 295 294 294 293 293 293 293 295 295 295 296 296 296 296 295 296 295 295 295 295 295 297 296 295 295 294 294 294 294 294 294 293 293 294 293 293 293 293 293 293 293 293 293 294 294 295 295 296 296 295 296 299 300 299 298 297 297 295 293 294 294 294 294 294
296 295 295 294 294 294 294 294 294 294 294 294 295 295 295 295 294 294 294 295 295 294 293 293 292 292 293 293 294 295 294 294 294 294 294 295 295 295 295 294 294 294 294 295 294 294 294 293 293 293 293 293 293 294 295 294 294 293 293 293 293 293 293 293 293 293 294 295 295 295 296 298 298 298 297 296 295 294 295 294 293 293 293 293 293
295 295 294 294 294 294 294 294 294 294 294 294 294 294 294 294 294 294 294 294 294 293 293 292 292 292 292 293 293 293 293 293 293 293 293 293 293 293 293 293 293 293 292 293 292 292 292 293 292 292 292 292 292 294 293 291 291 292 294 293 292 292 292 292 292 292 293 293 294 294 294 297 297 297 296 295 294 293 293 293 293 294 295 293 293
295 295 294 294 294 293 293 294 294 294 294 294 294 294 294 293 293 293 294 294 293 293 292 292 292 292 292 292 292 292 291 291 291 291 291 291 291 291 291 291 291 292 292 292 291 291 291 291 292 291 291 292 292 294 291 291 291 291 293 293 292 292 292 292 292 292 293 293 293 293 294 295 295 296 295 294 293 293 292 292 292 292 293 293 293
295 295 295 294 294 294 294 294 294 294 294 294 294 294 293 293 293 293 294 293 292 292 291 291 291 291 291 291 291 290 290 290 290 290 291 290 290 290 290 290 289 291 291 290 290 290 290 290 291 290 291 291 291 292 291 291 291 291 291 293 292 292 292 292 292 292 292 292 292 292 293 294 294 297 296 293 292 292 293 293 293 293 294 294 292
295 295 295 294 294 294 294 294 294 294 295 294 295 294 294 294 294 293 292 292 291 290 290 290 290 290 290 290 290 290 289 289 290 290 289 289 289 289 289 289 289 289 289 289 289 289 289 289 290 289 290 290 290 292 291 291 291 291 291 292 292 292 292 291 291 292 292 292 292 292 292 292 293 293 293 293 292 291 291 292 292 293 293 294 294
294 294 294 294 294 294 293 293 294 294 294 294 294 294 293 293 292 292 291 291 291 290 290 290 290 290 290 290 290 289 289 289 289 289 289 288 288 288 288 289 288 287 287 288 288 288 289 290 289 289 290 290 290 291 290 291 291 291 291 292 292 291 291 291 291 292 292 292 291 292 292 292 292 292 293 292 291 291 291 291 291 292 293 293 294
294 294 293 294 294 294 294 293 296 295 294 294 293 293 293 292 292 292 291 291 291 290 289 289 289 289 289 289 289 288 288 288 288 288 288 287 287 287 287 289 289 287 287 288 288 288 288 287 288 289 289 289 289 290 290 291 291 290 291 292 291 291 291 291 291 291 292 292 292 292 292 292 291 291 293 291 291 291 291 291 291 291 292 293 294
295 295 295 295 295 294 295 295 294 294 294 294 293 293 293 292 292 291 291 290 290 290 289 291 289 289 290 289 289 289 289 288 288 287 287 287 287 287 287 289 286 286 286 287 287 287 288 287 288 288 289 288 289 290 291 291 291 290 292 291 291 291 291 290 290 291 291 291 292 293 293 292 291 291 292 289 290 291 290 290 290 290 291 291 292
295 295 295 295 294 295 296 295 294 294 294 293 293 293 292 292 291 290 290 290 290 290 290 290 289 290 290 288 289 289 289 288 287 287 287 287 287 287 287 288 286 286 286 286 288 287 287 288 288 288 291 288 288 291 291 291 291 291 292 291 291 290 290 290 290 291 291 291 292 295 295 292 291 291 290 289 290 291 290 290 290 290 289 289 290
295 294 294 294 294 295 295 294 294 293 292 293 292 292 292 291 291 291 291 290 289 289 290 290 290 289 288 288 288 288 287 287 287 287 287 287 287 287 288 286 286 286 287 286 290 286 287 288 288 289 292 289 289 291 291 290 291 291 292 291 291 290 290 289 289 290 291 291 291 292 294 292 292 291 289 290 289 291 290 290 290 289 288 288 290
294 294 295 295 295 295 293 293 293 293 292 292 292 292 293 291 291 290 290 289 290 290 290 289 289 289 289 289 290 291 289 288 287 287 287 287 288 286 286 286 286 286 286 286 287 287 286 287 288 288 288 288 289 290 292 290 291 291 291 292 291 290 289 289 289 290 289 290 290 290 291 290 289 289 289 289 289 290 290 290 290 289 288 288 291
294 294 296 294 294 294 293 294 294 293 292 292 293 293 292 292 290 290 290 290 290 290 289 289 289 289 289 288 288 288 288 287 287 288 289 288 286 286 285 285 285 286 286 286 286 287 286 287 287 288 288 289 291 291 291 291 291 291 291 291 291 290 290 290 289 289 289 289 289 289 290 291 289 289 289 289 290 290 290 291 290 289 289 290 291
296 296 295 294 293 293 293 293 293 293 293 293 293 293 291 291 290 290 291 291 290 289 289 289 289 289 289 289 288 288 289 290 290 288 286 286 286 286 287 285 285 285 285 285 286 287 286 286 287 288 288 288 290 292 291 291 290 290 290 291 291 291 291 291 289 289 289 289 289 289 290 291 289 289 289 289 289 290 290 291 290 289 289 289 291
294 294 295 294 293 292 292 292 292 293 293 293 293 292 291 291 290 291 291 290 290 290 290 289 289 289 290 289 289 290 290 291 289 288 286 286 285 286 286 286 285 285 285 286 285 285 285 286 286 287 287 288 288 290 291 291 290 290 290 290 290 290 289 291 290 289 289 289 290 290 291 291 289 289 289 289 290 289 290 290 289 289 289 289 291
295 295 294 295 293 293 292 292 292 292 292 293 293 292 291 290 290 290 289 290 290 290 290 290 290 289 290 290 290 290 289 288 289 288 287 286 286 286 286 286 285 285 285 286 285 285 285 285 285 286 287 287 288 288 290 290 290 290 289 289 289 289 289 290 291 290 290 290 289 290 290 289 289 289 289 289 289 289 289 289 289 289 289 290 291
294 294 295 295 293 292 292 291 291 291 291 292 293 292 291 291 290 290 291 291 290 290 290 290 289 289 289 289 289 288 288 287 287 288 288 288 287 286 286 285 286 285 285 285 285 286 285 285 285 285 286 287 287 288 288 290 290 290 289 289 289 289 289 289 290 290 291 290 289 289 289 289 289 289 289 289 290 290 289 289 289 289 291 290 290
295 294 295 294 294 293 292 291 290 290 291 292 292 292 291 292 289 291 291 291 290 291 291 290 289 289 289 288 288 287 288 288 287 287 288 286 287 288 287 285 285 285 285 285 286 286 286 285 285 285 285 286 287 287 288 289 290 290 289 289 289 289 290 290 290 290 289 289 289 289 289 289 289 289 290 290 290 290 289 289 289 290 290 289 289
294 295 295 294 293 292 292 291 290 290 291 291 291 292 292 290 290 290 290 290 291 291 291 290 289 289 288 288 288 288 287 287 287 286 288 289 287 284 286 287 285 285 285 286 286 286 286 286 285 285 285 286 287 287 288 288 288 288 289 289 289 290 290 290 290 290 289 289 289 289 289 288 289 288 289 289 289 290 290 290 290 290 290 289 290
295 295 295 294 293 292 293 292 292 291 291 291 290 290 290 291 290 290 290 290 291 291 290 289 288 289 289 288 289 288 288 287 286 285 286 285 286 284 285 287 287 286 286 285 286 286 286 285 285 285 285 286 286 287 288 287 288 288 288 289 289 289 289 289 289 289 289 290 289 288 288 289 289 289 289 288 289 289 289 289 289 289 289 289 290
294 294 294 294 293 293 293 293 292 291 290 290 290 290 290 290 290 290 290 291 291 290 290 288 287 288 289 289 290 290 288 287 286 286 285 285 286 286 285 285 284 284 286 287 286 286 287 285 285 285 285 286 286 287 288 288 289 288 288 288 288 288 289 289 289 288 289 289 288 288 287 287 287 286 286 287 287 287 288 289 289 289 289 289 288
294 295 294 294 293 292 292 293 291 289 290 290 290 290 290 290 290 289 290 291 290 289 288 287 287 288 288 289 289 288 288 287 286 286 286 287 286 288 286 286 285 289 288 288 288 286 287 286 286 287 287 287 286 287 288 288 288 288 288 288 288 288 288 289 288 288 289 287 286 286 286 286 286 286 285 285 285 286 286 287 287 288 288 288 287
294 294 293 293 292 293 293 292 290 289 290 290 290 289 289 289 289 289 290 290 289 289 288 286 288 288 288 289 289 288 287 287 286 285 285 286 287 287 287 288 289 289 289 288 286 286 286 286 288 287 288 288 288 288 288 288 288 288 288 288 288 288 288 288 288 287 287 286 285 285 285 285 285 285 285 285 285 285 285 285 286 287 288 287 287
Wind_Speed
7 8 8 9 9 9 8 8 8 9 8 8 8 7 7 6 6 6 4 4 5 4 3 3 4 3 3 3 2 3 3 4 5 5 5 4 3 3 2 2 3 4 5 4 4 3 3 2 3 3 3 2 3 4 4 4 4 4 4 3 4 5 3 1 1 2 1 4 2 5 5 7 8 9 10 8 9 6 5 6 6 6 7 8 7
9 7 8 9 8 9 8 7 8 9 8 8 8 7 6 6 6 5 5 5 5 4 3 3 1 1 2 2 3 2 4 5 5 6 5 5 5 5 5 5 5 5 4 3 2 3 4 4 4 4 3 2 3 4 5 4 3 3 3 3 2 3 4 1 2 1 1 2 4 4 4 5 8 9 9 8 8 7 6 6 6 7 7 8 6
9 8 8 8 9 9 8 7 8 8 7 7 7 8 8 7 6 5 5 5 5 5 4 4 2 1 2 2 3 4 3 3 4 4 5 6 6 6 5 6 6 5 5 5 4 4 3 3 4 4 3 3 3 4 3 3 3 3 2 3 4 2 3 3 4 4 4 1 2 3 4 4 1 3 6 9 9 9 8 8 7 8 10 7 6
9 9 8 8 8 8 9 8 7 7 6 6 6 7 6 7 6 5 5 5 6 5 4 3 4 3 3 3 4 6 5 4 5 5 6 8 9 7 7 6 6 6 5 5 4 4 4 4 4 4 4 3 4 3 3 4 4 3 3 4 4 4 2 3 4 4 3 4 4 1 2 1 8 3 2 4 9 10 10 11 8 8 8 7 6
8 11 9 8 9 9 9 8 7 7 6 6 5 5 5 6 5 6 5 5 5 5 5 3 3 4 3 4 4 4 3 5 6 8 7 7 7 8 7 7 7 7 7 7 6 6 5 5 5 5 5 4 3 2 3 4 3 3 4 4 3 4 5 2 1 3 4 5 4 4 4 2 3 4 5 5 3 6 8 10 9 9 8 8 7
7 9 9 8 9 8 9 9 9 8 7 6 5 4 5 6 6 6 5 5 4 4 5 3 5 6 6 6 6 6 7 7 8 7 6 7 6 5 7 7 7 7 7 7 7 7 6 6 5 5 5 5 3 2 3 3 4 4 4 4 4 4 5 6 4 2 5 5 6 6 6 7 7 3 4 6 2 5 5 7 10 10 9 10 8
7 10 9 9 8 11 10 10 8 8 6 5 4 5 7 7 6 7 6 6 6 6 7 5 6 6 6 5 5 6 6 5 3 4 4 4 4 6 6 6 7 8 8 7 7 7 7 6 6 6 5 5 5 3 3 4 4 4 3 3 4 4 5 5 6 4 2 5 6 8 8 7 7 6 5 5 10 2 3 4 7 8 8 9 9
8 9 9 7 6 6 6 10 10 7 5 6 6 7 8 8 9 8 7 7 6 7 8 6 5 5 5 5 5 6 6 5 4 4 4 4 6 6 5 6 7 8 8 9 9 9 8 8 8 8 8 7 6 6 5 5 4 4 4 4 4 4 5 6 7 4 6 3 5 6 7 8 8 9 9 9 10 10 8 3 4 5 7 8 9
10 9 8 8 7 7 7 8 8 8 7 6 5 6 6 7 8 7 8 8 8 10 9 9 7 6 6 5 5 5 4 4 3 4 5 4 7 6 7 6 7 8 9 9 9 9 9 8 9 10 9 9 7 7 7 6 6 6 5 4 4 4 4 4 6 5 4 5 6 5 5 5 6 7 8 8 7 8 10 7 9 3 6 8 8
9 8 6 7 9 8 7 8 8 7 6 6 6 7 6 6 7 9 9 8 8 10 9 10 9 8 8 8 8 7 6 5 4 6 6 5 7 6 5 6 6 7 8 10 9 9 8 9 10 10 9 8 8 8 9 9 9 7 6 6 5 6 4 5 6 6 6 5 5 5 6 4 5 5 7 8 9 9 11 10 9 9 8 6 6
8 8 6 6 7 9 7 9 8 7 6 6 6 6 6 6 7 11 9 8 9 9 9 9 9 9 8 9 10 10 9 9 8 9 8 8 8 7 7 6 7 7 7 8 9 9 8 10 9 8 8 8 8 8 8 8 8 8 8 8 6 6 5 5 5 5 5 5 5 5 6 7 7 8 7 6 6 7 7 9 7 8 9 12 8
9 9 6 6 8 8 7 8 8 7 6 6 7 7 7 6 8 12 11 9 8 8 9 8 8 9 8 9 10 9 10 8 10 10 9 9 8 8 7 7 8 7 8 7 8 9 9 9 9 8 9 9 9 8 9 9 7 7 8 8 8 7 6 5 5 5 6 5 7 6 6 5 6 7 6 6 7 9 9 11 10 8 8 10 6
8 8 5 5 6 7 7 7 6 6 6 7 8 7 7 8 9 12 10 8 8 8 9 10 10 9 9 9 9 8 10 9 9 9 8 8 8 9 9 8 8 9 8 8 8 9 8 8 9 9 8 9 9 9 9 10 9 7 8 8 8 9 9 10 9 7 6 6 5 5 7 6 7 6 7 7 7 8 8 10 10 8 10 10 8
8 7 6 6 5 5 6 7 7 6 7 6 6 7 8 8 9 12 9 7 8 9 9 10 9 8 8 8 8 8 9 8 8 8 8 7 7 8 8 8 8 8 8 8 7 7 9 8 8 8 9 9 9 9 9 9 9 7 7 7 8 8 8 8 8 10 9 8 6 6 5 6 6 6 7 7 8 8 9 11 10 8 7 9 7
7 7 6 5 6 7 6 6 7 7 7 7 6 7 8 8 9 10 9 8 9 9 8 9 8 8 8 8 8 7 8 7 7 7 7 8 7 8 8 7 7 7 7 7 7 7 8 8 10 10 10 10 9 9 9 9 9 8 6 7 7 7 8 7 8 9 9 11 11 8 8 7 7 7 7 7 8 10 10 10 10 13 11 9 10
7 7 5 6 7 6 6 7 7 7 7 7 7 6 9 8 9 9 8 7 8 8 7 7 7 7 8 9 9 8 6 6 7 6 7 7 8 8 8 8 7 7 7 8 8 7 8 9 9 10 10 10 10 10 10 9 10 9 8 8 8 7 8 9 8 9 9 11 10 10 9 8 7 8 7 7 7 8 9 9 9 11 14 14 10
7 6 5 7 7 6 6 6 6 6 7 6 6 7 8 9 9 9 8 7 7 7 7 6 6 8 8 8 8 8 8 8 7 7 7 7 8 7 7 7 8 8 8 8 8 9 10 11 10 10 11 10 11 11 11 10 10 8 9 9 9 10 9 9 9 8 9 10 9 11 10 10 9 8 9 8 9 9 9 10 9 8 10 11 10
8 7 6 7 7 8 7 6 5 6 8 8 8 6 7 8 9 9 8 8 6 6 6 6 6 7 7 8 7 7 6 6 6 7 7 8 8 7 8 8 9 8 7 7 8 10 11 12 11 11 10 11 11 11 11 11 10 9 10 8 9 10 10 9 9 9 9 9 10 11 10 10 10 11 10 9 9 9 10 10 10 8 8 11 9
9 8 8 7 7 7 7 7 7 7 7 9 8 8 8 8 9 9 8 6 5 5 5 6 6 5 5 6 6 5 5 5 5 6 7 9 9 8 8 8 8 8 8 9 9 9 10 10 10 10 10 10 10 10 11 10 11 10 10 9 10 11 10 11 10 10 9 9 11 11 10 10 11 12 12 12 11 9 9 8 10 10 9 11 12
9 9 8 7 7 7 8 8 8 8 8 9 9 8 10 8 9 8 7 7 7 7 6 7 5 6 6 6 6 5 4 4 4 6 8 9 8 8 8 9 8 8 8 8 9 11 10 9 9 10 10 10 10 10 10 11 11 11 10 10 10 11 10 10 10 9 9 9 10 10 11 9 10 10 11 11 12 11 10 10 10 10 11 12 12
9 9 8 8 8 8 8 7 7 7 7 7 8 9 8 8 8 8 8 7 7 6 6 6 6 7 7 8 7 7 7 6 7 6 7 7 7 7 8 7 7 9 9 10 10 11 10 9 10 11 11 11 11 11 10 9 12 12 12 11 11 11 11 10 10 11 9 10 10 10 10 11 10 10 10 10 10 12 12 11 10 11 12 12 12
10 10 9 8 8 8 7 7 7 8 8 8 7 9 9 9 7 7 7 6 6 6 6 6 6 7 7 7 7 7 8 8 9 9 10 9 8 8 8 8 9 8 9 9 10 8 9 9 10 10 10 10 10 11 10 10 12 12 13 10 11 12 12 12 11 13 13 10 11 13 13 13 11 11 10 10 10 11 12 12 12 11 12 12 11
11 10 8 7 8 8 7 8 8 7 7 8 7 7 9 8 7 6 7 6 6 5 5 6 7 7 7 7 8 8 8 9 10 9 10 9 8 9 9 9 9 8 8 8 8 8 8 8 9 10 10 10 11 10 10 10 11 13 14 13 11 12 12 13 13 13 13 12 12 11 12 13 9 10 11 11 12 12 11 11 13 12 14 14 13
10 9 7 7 7 8 8 8 8 7 7 8 7 7 9 7 7 6 7 6 6 5 6 7 7 7 7 8 8 8 9 9 9 8 9 8 8 8 8 9 8 7 8 7 7 8 8 8 9 10 10 11 11 10 11 10 12 12 14 14 13 12 12 12 13 13 14 13 13 12 12 13 12 12 12 11 11 12 12 11 12 13 13 15 15
11 10 9 8 8 8 7 8 8 7 7 7 7 8 8 7 6 6 5 5 5 5 6 6 7 8 8 8 8 7 8 8 8 7 9 8 8 8 7 8 7 8 7 7 7 7 8 9 10 10 10 11 10 10 11 11 11 11 11 9 11 11 11 12 12 13 14 13 13 12 13 13 12 12 11 11 11 14 12 11 10 10 10 12 13
12 11 9 9 8 7 7 7 6 6 7 7 7 7 7 7 6 4 5 5 5 5 6 6 6 7 7 8 7 7 7 7 7 7 8 8 7 7 7 6 7 8 7 7 7 7 8 9 10 10 11 10 10 10 10 10 10 11 9 9 9 11 11 11 12 12 12 12 12 13 13 12 12 11 11 11 13 15 13 12 14 12 11 10 12
13 12 8 7 8 8 8 7 7 6 6 6 7 7 7 7 6 5 5 5 5 6 6 7 7 7 7 6 6 6 6 6 7 7 7 7 7 7 7 7 6 7 7 8 8 8 7 7 8 9 10 9 9 10 10 10 10 10 10 10 10 11 11 11 11 11 11 12 12 12 12 12 12 12 11 12 12 14 12 15 14 14 14 12 14
10 10 11 10 9 8 8 8 8 7 7 6 6 7 7 7 7 5 5 5 5 6 7 7 7 7 6 6 6 6 6 7 6 7 7 7 7 7 7 6 6 7 7 8 9 8 7 7 7 7 7 8 8 10 11 10 10 10 10 9 9 10 11 11 12 12 12 12 12 12 12 12 13 12 12 12 12 11 12 14 13 13 14 14 13
12 12 11 12 10 8 8 8 8 8 9 8 7 7 7 6 6 5 6 6 5 7 7 7 7 7 6 5 6 5 6 7 7 7 7 7 7 7 7 7 7 7 6 7 7 7 7 7 7 7 7 7 8 10 9 11 12 12 11 10 10 10 10 11 12 12 12 12 12 11 11 13 15 18 20 18 17 16 11 12 14 14 15 14 14
12 12 11 11 11 10 9 9 8 9 9 8 8 7 7 8 6 6 6 4 7 7 8 7 7 6 5 6 7 6 7 7 7 7 6 6 7 7 7 7 8 8 7 7 8 6 7 7 7 8 7 7 8 8 15 21 18 14 12 9 9 9 10 10 11 13 12 12 12 12 13 19 19 19 20 18 17 19 22 17 13 12 14 15 14
12 11 11 11 11 11 10 10 9 9 9 9 8 7 7 7 6 6 6 5 7 8 7 7 6 5 6 7 7 7 7 7 6 6 6 7 7 7 7 7 8 7 8 7 7 8 7 7 7 7 8 7 7 10 19 18 19 21 15 10 10 10 10 10 10 12 12 13 13 13 12 15 16 17 17 19 17 19 21 23 25 23 18 13 14
14 12 12 12 12 12 11 11 10 9 9 9 8 8 8 7 6 6 5 5 7 7 7 6 5 6 7 8 7 7 7 7 7 7 6 6 6 7 7 7 7 8 7 6 9 8 8 7 7 7 7 7 7 13 17 18 19 20 18 11 8 9 9 9 10 12 12 12 13 13 12 11 11 16 18 17 20 23 23 23 23 22 22 19 16
14 14 14 13 13 12 12 11 9 9 9 8 10 9 9 7 7 5 5 7 7 7 7 7 6 7 7 7 7 7 6 6 6 6 6 6 7 8 8 8 8 6 6 8 8 8 8 8 8 8 8 7 7 15 17 19 18 19 19 13 7 8 9 10 10 12 13 12 12 13 13 12 11 21 18 17 19 21 24 26 25 25 21 20 17
13 14 14 13 11 10 11 11 10 9 10 8 8 10 8 7 7 5 8 7 7 6 7 7 7 7 7 7 6 6 6 6 6 6 6 7 8 8 7 6 6 7 7 7 8 8 8 9 8 8 7 7 8 13 17 18 17 18 18 14 8 8 9 10 10 11 12 13 13 13 13 14 14 16 15 18 19 18 19 19 18 16 16 19 20
14 13 13 13 13 12 11 10 9 9 8 9 8 9 8 7 7 7 6 7 7 8 7 7 7 6 6 6 6 5 6 6 6 6 6 7 7 6 7 6 6 6 7 7 7 8 7 8 8 8 7 8 7 15 16 17 17 18 19 12 9 9 9 9 10 10 12 13 13 12 14 14 15 16 16 21 20 19 19 17 17 18 17 16 16
15 15 14 14 14 14 14 12 9 9 8 10 10 9 10 7 7 8 6 7 7 7 7 6 6 5 5 4 5 6 6 6 6 6 6 6 5 5 6 5 5 6 6 5 7 6 8 9 8 8 8 9 8 14 16 17 17 17 18 9 11 11 10 10 10 11 13 12 13 14 15 16 17 16 20 25 23 19 18 18 17 17 17 16 15
12 14 14 13 13 13 12 11 9 9 10 10 9 9 9 8 8 6 7 6 7 7 6 5 5 4 4 4 5 6 5 5 5 5 5 4 4 6 6 5 6 6 7 7 6 6 6 7 8 8 8 8 8 12 15 16 17 18 13 11 12 10 9 10 10 10 12 14 14 16 16 14 15 16 22 24 24 23 17 18 17 17 17 16 16
12 10 12 11 11 11 10 12 11 10 10 9 9 10 10 9 8 6 7 6 6 6 5 5 5 4 4 3 3 4 4 4 4 4 3 3 4 4 5 5 6 6 7 7 6 6 6 6 7 8 7 8 8 11 15 16 17 18 13 10 10 10 11 10 10 9 9 10 14 23 20 15 15 16 23 24 24 21 17 16 17 18 18 18 17
15 16 15 14 13 14 12 11 11 11 9 9 10 11 10 9 8 7 7 7 6 5 5 5 4 3 3 3 3 4 4 4 3 2 3 3 4 4 3 4 5 5 6 6 6 7 7 7 6 6 10 9 8 9 13 16 17 17 13 8 10 10 10 10 11 10 9 9 10 12 19 18 18 20 24 23 24 21 16 16 17 16 17 17 17
11 11 13 14 13 13 12 12 13 12 9 10 10 10 10 9 8 7 7 7 7 7 6 4 3 3 3 3 3 4 3 4 3 2 3 3 2 3 5 5 5 5 6 6 6 6 7 7 7 7 6 7 8 9 11 16 17 17 16 9 6 10 11 11 10 9 10 10 10 10 12 18 23 23 23 24 23 24 17 15 14 13 15 17 16
16 15 14 13 13 15 15 15 12 11 9 9 9 10 9 8 8 8 8 8 7 5 4 4 4 4 4 4 3 4 4 3 2 3 2 3 3 4 4 4 5 5 5 6 7 6 6 7 6 6 7 7 7 8 10 15 16 17 17 13 7 9 10 10 8 8 8 9 11 11 10 18 23 23 23 24 23 23 21 16 13 12 14 19 19
12 14 14 13 12 12 12 11 10 11 10 9 10 10 9 8 8 9 9 6 5 5 4 4 4 4 4 4 4 3 3 3 2 2 4 3 3 3 3 3 4 4 5 6 5 5 6 6 6 6 6 7 8 11 8 12 16 17 17 18 10 8 10 9 11 8 9 8 11 13 11 17 23 22 22 23 23 22 23 15 18 23 24 24 19
15 14 13 15 13 13 13 12 10 10 9 9 11 11 9 8 9 10 7 6 6 5 5 5 4 4 4 4 4 4 3 3 2 2 3 3 2 4 3 3 4 4 5 6 6 6 5 6 6 6 6 7 7 7 11 10 14 17 17 17 18 13 16 9 7 8 9 8 8 9 11 20 22 22 22 22 21 23 17 17 25 24 24 24 18
13 14 14 14 14 12 12 10 9 9 9 9 12 11 9 9 10 6 6 6 6 5 5 5 4 4 4 3 3 3 3 3 3 2 2 2 2 2 3 3 3 4 5 6 6 5 6 6 7 7 7 7 7 7 9 13 13 16 15 16 16 18 17 10 8 7 8 9 9 10 13 21 20 21 21 20 20 20 17 23 23 24 23 19 13
15 14 13 13 14 13 12 10 8 9 8 9 10 12 10 10 7 6 7 7 7 6 6 5 5 4 4 3 3 3 3 3 2 3 2 1 1 2 3 3 4 4 4 5 5 5 6 6 6 7 7 7 7 8 7 9 14 14 15 15 17 16 17 17 10 8 9 9 13 18 19 19 19 20 20 18 16 19 23 22 22 22 20 12 14
14 13 13 13 12 12 13 11 7 8 8 8 9 11 12 9 7 7 7 8 8 7 6 7 6 5 5 4 4 2 1 2 2 1 2 1 1 0 2 3 4 4 4 4 5 5 6 6 6 6 7 7 7 7 8 8 7 9 10 14 16 15 15 15 13 10 14 16 17 17 18 18 16 17 14 13 13 15 19 20 20 19 14 13 13
16 15 14 13 12 12 12 11 10 7 8 8 9 9 10 7 9 7 7 7 8 8 7 6 6 6 5 5 5 5 3 2 2 2 1 0 0 1 0 1 2 3 4 4 5 5 5 6 6 6 7 7 7 7 8 9 7 7 7 8 8 9 11 11 9 9 10 9 13 13 12 14 12 16 15 13 13 15 14 15 14 14 13 13 13
12 11 13 13 12 12 12 12 11 8 7 8 7 7 8 8 7 7 7 7 7 8 8 7 7 6 7 6 6 6 5 5 4 4 4 2 2 2 1 0 0 1 3 4 4 5 5 5 6 6 6 7 7 7 7 7 7 7 7 7 7 8 9 8 8 8 8 8 8 10 10 9 10 10 10 11 12 12 12 13 14 13 13 13 15
13 11 13 13 11 12 11 11 10 7 7 7 7 7 7 9 8 7 8 8 8 7 6 6 6 6 6 6 6 6 6 6 5 4 4 5 5 4 4 3 4 4 2 1 3 4 3 3 3 4 6 7 7 8 8 8 9 10 8 7 7 8 8 9 12 13 8 9 8 8 8 10 10 11 12 12 11 13 13 13 14 14 13 13 13
12 11 12 12 11 11 10 10 8 7 7 8 8 7 6 7 7 7 8 9 7 6 5 6 6 6 6 6 5 6 5 5 5 5 4 4 5 6 5 4 4 3 6 5 4 3 3 3 4 4 2 2 5 6 10 12 13 14 14 14 12 14 14 12 15 17 8 7 9 10 10 10 10 9 11 12 12 12 12 13 12 14 14 13 13
12 11 10 11 10 10 9 9 8 6 7 8 8 7 6 6 6 7 8 9 8 7 6 6 6 6 7 7 6 6 6 5 5 5 4 5 5 5 7 9 9 9 7 6 5 7 7 6 4 4 5 4 5 8 11 11 12 13 14 14 13 13 15 16 15 11 10 8 8 8 9 10 10 9 10 8 10 11 12 12 12 12 12 14 14
Wind_Direction
81 78 78 85 84 85 83 79 75 70 69 80 80 72 67 70 68 54 35 36 42 40 45 51 43 11 40 49 52 360 17 24 19 5 12 12 19 26 39 29 29 27 25 18 0 328 323 300 281 263 241 236 243 251 255 248 243 246 260 257 276 294 299 287 218 148 347 289 218 237 250 220 225 223 224 220 221 221 217 207 206 202 211 215 207
79 70 72 75 75 76 74 73 75 76 70 74 76 72 71 65 64 57 41 41 46 56 69 78 80 137 125 97 109 55 42 36 26 16 17 21 30 30 24 20 19 20 21 32 8 347 339 331 315 306 308 265 252 259 268 264 261 256 268 295 221 282 291 268 245 146 321 237 307 309 255 231 222 219 224 226 224 220 213 214 210 209 210 212 197
89 83 77 84 82 80 80 73 68 70 73 70 67 69 62 61 57 52 44 43 34 41 53 63 61 93 119 142 115 98 56 73 76 37 38 51 42 35 28 23 18 15 12 20 27 13 354 324 309 305 296 259 255 251 253 286 287 280 271 278 303 258 262 231 214 189 277 147 195 289 300 340 10 228 233 238 233 229 221 222 216 218 218 206 180
102 90 79 80 81 84 80 75 72 66 59 60 56 62 61 62 56 58 57 53 46 26 44 55 75 68 74 105 87 88 77 61 68 57 51 48 43 36 37 31 25 25 19 20 24 19 11 346 324 316 300 254 230 252 261 263 260 271 280 275 266 296 279 275 203 189 218 297 310 206 299 341 309 285 282 254 219 224 216 224 218 222 220 204 180
100 92 78 80 79 75 81 84 78 70 60 56 57 62 67 66 63 60 50 59 65 57 37 24 50 48 52 65 77 65 46 56 51 38 33 42 49 38 33 33 36 36 27 26 21 18 12 3 351 338 339 313 239 248 277 285 287 267 259 254 247 266 289 275 250 184 216 207 246 308 309 270 233 291 340 276 221 224 232 231 226 225 220 211 198
96 94 90 87 93 86 82 77 71 66 58 46 49 65 76 64 56 58 54 47 47 67 75 66 58 59 47 47 42 51 52 37 40 35 29 34 37 37 39 38 41 39 32 28 24 23 15 4 359 355 350 348 335 299 304 300 278 279 260 255 260 236 257 274 278 210 221 216 216 214 236 277 299 301 349 295 4 210 218 220 225 223 221 219 213
90 95 96 96 104 108 107 93 79 76 59 50 49 55 59 63 51 49 45 36 23 35 48 57 62 63 68 74 82 77 79 54 51 47 53 47 46 47 39 35 39 39 30 26 24 22 19 13 6 3 357 358 351 332 309 301 298 289 280 253 248 252 250 270 278 285 220 218 224 230 241 244 248 280 278 299 296 304 222 238 244 239 233 229 229
101 90 87 81 63 66 73 97 97 83 71 56 46 45 46 47 48 43 36 37 26 33 36 34 59 62 68 69 69 69 71 67 46 47 48 57 52 47 43 39 39 38 31 26 23 22 21 15 12 14 13 5 6 5 342 316 294 276 267 264 255 257 267 271 288 278 284 277 210 238 239 246 251 247 245 255 273 290 285 243 244 248 236 231 227
103 102 103 99 85 81 84 73 79 85 76 68 63 56 52 50 56 53 47 43 35 35 38 28 29 40 53 60 69 61 72 66 58 47 52 46 59 38 40 38 42 39 34 27 22 20 23 21 19 21 14 8 8 7 2 351 333 317 305 299 297 285 275 284 281 286 286 285 290 258 241 249 254 243 247 244 251 269 272 266 275 226 242 243 235
97 95 94 96 97 84 85 90 80 77 78 76 65 64 58 61 63 60 48 42 43 42 38 37 31 32 40 33 40 38 38 45 57 45 38 34 51 43 40 39 35 33 29 23 20 18 22 25 25 24 18 8 9 9 8 3 355 346 333 318 310 307 287 290 291 286 271 267 258 272 271 270 261 257 242 248 247 231 260 271 270 274 267 250 221
105 99 88 91 95 100 95 95 96 92 86 89 85 77 75 69 72 65 52 45 46 46 43 41 39 38 42 39 39 33 28 30 30 30 27 32 34 31 30 33 34 36 27 24 17 13 24 30 25 21 22 17 11 10 9 356 349 347 342 336 320 312 308 303 296 288 288 284 282 279 268 254 261 273 278 256 256 262 260 260 259 253 258 270 238
107 99 102 106 101 91 94 94 95 96 90 82 76 75 70 67 70 68 50 46 44 50 53 47 50 47 46 45 46 42 39 38 37 30 23 28 29 29 25 30 29 28 25 22 19 15 28 26 24 23 23 15 15 6 10 356 345 347 354 355 349 331 309 296 288 288 279 276 267 262 276 291 277 262 266 267 269 269 267 275 276 279 271 257 262
112 112 114 102 97 105 100 96 90 80 74 75 79 81 77 70 64 67 54 44 48 51 57 51 49 44 44 47 46 46 46 44 40 37 25 29 24 28 27 29 23 25 20 18 14 20 28 24 26 24 17 17 13 8 6 360 356 352 359 356 353 359 353 343 325 307 290 290 285 266 266 260 258 262 262 261 256 261 265 275 270 264 267 275 266
114 110 113 116 116 102 98 97 92 80 71 71 80 84 80 71 66 70 59 48 54 56 54 56 50 47 47 51 51 49 50 47 43 40 32 33 30 31 30 26 27 26 21 21 3 21 34 28 29 28 26 20 18 11 6 2 0 355 355 357 353 352 346 342 334 334 323 301 276 282 266 268 270 257 257 259 269 267 267 272 285 274 263 268 272
108 109 124 122 96 90 93 91 82 78 78 75 73 78 77 71 70 72 63 49 56 56 55 57 51 48 50 53 51 53 54 52 48 46 40 39 33 36 30 24 25 18 20 15 10 22 40 30 28 25 21 19 16 12 6 0 357 353 358 354 352 347 341 340 341 335 329 331 326 313 298 283 278 274 266 267 269 264 265 271 277 287 281 271 271
115 122 114 85 86 91 86 76 71 71 78 81 81 82 85 87 80 73 69 59 57 59 57 58 55 54 52 55 54 55 57 58 54 47 47 46 44 40 35 28 23 19 17 16 12 18 34 29 26 24 19 17 15 12 9 6 360 358 354 351 345 352 344 348 343 336 333 332 325 322 314 305 296 285 271 267 266 270 274 272 269 269 274 278 271
126 112 99 99 94 85 82 82 82 85 83 85 81 82 91 90 87 80 71 62 58 60 61 57 58 60 54 58 56 56 57 56 56 53 52 50 49 43 39 33 29 27 21 17 14 22 32 29 24 21 19 14 13 11 8 5 3 3 360 357 354 349 345 345 341 339 336 332 327 326 319 313 307 300 288 276 272 266 266 265 263 270 278 280 284
117 109 104 104 102 95 84 80 86 94 106 94 84 82 78 81 86 84 72 67 57 61 61 55 58 59 55 55 54 55 57 56 57 58 54 54 47 42 36 34 31 26 25 20 22 30 33 26 23 19 16 15 12 8 7 4 2 5 5 7 2 354 350 347 347 343 339 335 333 329 326 318 321 316 311 301 287 279 270 260 256 251 252 259 265
121 117 116 111 107 102 101 97 92 90 92 98 95 88 85 82 78 78 76 68 68 64 62 53 48 54 53 49 47 45 47 53 58 62 60 56 49 43 40 37 33 28 25 25 28 33 29 24 21 17 14 11 8 7 3 3 5 8 10 7 3 359 355 350 349 347 341 339 337 333 332 326 326 321 317 313 304 297 289 277 272 263 255 256 259
126 123 119 115 109 102 101 103 106 108 107 103 99 91 86 82 80 79 70 65 61 54 54 55 42 49 45 41 34 37 39 53 58 61 59 58 53 47 41 39 35 32 29 26 35 36 28 25 20 18 15 11 8 6 4 359 3 12 7 4 358 353 349 348 344 343 340 334 331 331 328 324 323 321 318 315 310 303 297 293 285 281 273 264 258
128 125 121 116 109 104 100 100 100 99 98 95 96 96 90 81 78 71 77 69 62 54 58 53 51 49 52 46 39 36 36 36 39 47 57 55 49 44 42 39 33 35 28 29 29 34 30 25 22 20 17 12 7 6 5 358 8 8 5 358 351 350 348 346 339 335 334 338 331 323 320 317 316 316 317 314 311 310 307 298 292 286 282 275 263
126 122 119 120 112 104 101 97 99 101 102 99 97 97 91 83 81 81 71 65 71 55 59 57 57 55 53 49 45 44 44 44 48 44 46 43 41 40 35 32 35 28 31 30 28 24 26 24 25 21 17 14 9 8 5 1 10 8 4 358 349 347 347 344 343 343 340 337 333 332 324 322 318 310 310 315 317 320 324 324 316 306 294 287 267
126 121 125 126 119 112 108 106 102 101 101 101 96 97 96 92 85 79 79 68 71 70 62 63 59 56 54 50 51 47 48 48 49 46 47 42 41 40 37 37 33 32 28 32 29 26 21 23 26 23 18 16 11 8 7 4 10 9 3 359 353 351 350 348 347 344 342 340 337 334 333 334 324 318 327 338 338 336 333 328 323 321 317 307 288
116 120 124 122 113 112 112 105 99 96 101 102 101 97 93 89 89 84 82 77 68 62 61 60 62 58 54 54 50 48 50 47 48 43 44 40 39 37 38 37 35 33 34 24 28 27 23 23 25 22 22 16 13 9 8 7 9 7 360 355 358 355 353 352 351 350 347 343 339 337 339 338 334 334 337 340 341 336 332 327 326 327 321 318 311
130 132 130 121 112 110 111 109 109 110 105 104 103 99 98 95 91 89 79 69 64 58 62 58 60 58 48 49 44 42 46 43 45 40 41 40 37 37 34 38 33 33 29 27 24 22 25 24 24 21 17 17 13 10 8 6 8 1 348 342 351 356 354 352 352 349 347 344 339 337 336 338 334 332 337 342 339 334 331 327 322 320 320 318 315
140 135 136 129 120 116 113 111 111 111 112 106 103 102 100 97 90 94 93 78 69 65 62 62 56 58 53 49 45 43 42 41 40 39 38 37 35 31 31 31 32 31 25 25 26 20 24 22 23 20 20 16 13 13 10 5 1 357 348 350 350 357 357 350 346 341 343 343 341 339 339 338 335 329 337 340 338 335 331 330 328 324 322 317 316
144 140 129 115 114 116 117 114 115 115 112 112 114 108 104 100 92 88 92 88 77 73 65 67 62 63 61 55 53 49 48 46 43 41 39 35 32 28 26 26 22 25 27 23 21 24 19 20 17 16 18 12 10 12 11 6 359 354 351 347 348 349 350 350 341 340 340 340 341 342 341 341 335 333 338 340 335 333 332 327 324 323 319 317 315
138 133 136 133 126 124 121 120 116 112 107 102 96 103 108 108 106 96 88 83 78 77 73 70 69 64 62 59 57 54 54 52 49 45 41 37 32 29 26 22 21 22 24 23 19 18 14 16 13 12 7 12 9 12 11 6 359 353 350 348 346 347 345 343 341 341 339 341 342 343 342 339 336 337 338 335 336 331 328 323 322 319 316 312 309
146 146 142 133 132 129 123 120 120 116 112 109 105 102 100 93 92 92 86 84 87 84 78 75 70 67 59 62 63 61 57 53 47 44 38 32 30 25 24 22 22 20 17 18 15 14 13 13 12 11 7 8 14 11 11 3 357 354 354 348 347 344 343 340 341 342 342 343 343 341 338 336 336 337 335 333 330 330 324 320 318 318 314 310 305
150 150 144 134 133 131 130 127 125 122 119 115 111 110 109 106 100 93 88 85 88 81 84 77 73 72 68 68 69 63 59 53 45 40 33 30 25 23 22 23 22 20 19 16 15 11 13 12 9 8 9 11 11 12 3 2 4 1 352 348 345 344 341 342 342 344 342 343 342 340 335 334 335 336 335 334 332 327 324 319 310 308 307 306 301
148 150 141 136 135 133 132 130 132 129 125 121 118 114 107 101 100 94 88 85 91 89 82 84 82 75 76 72 69 64 59 51 44 39 33 28 24 21 21 19 18 18 18 15 15 17 14 7 10 6 7 9 5 6 1 1 0 1 1 351 350 342 341 342 343 343 343 341 341 340 336 335 336 337 336 335 330 326 323 319 315 309 298 288 295
154 151 140 138 138 139 139 139 137 132 127 125 122 119 112 111 108 100 98 95 89 89 90 87 88 81 74 74 72 68 60 48 42 34 28 25 24 25 25 22 19 16 10 12 20 14 13 8 6 5 7 4 360 360 0 0 360 358 357 352 343 343 342 342 342 343 343 342 341 339 338 336 336 337 337 335 332 329 324 318 314 309 304 293 272
154 151 146 145 146 147 143 139 137 137 133 134 129 122 122 126 113 115 108 92 89 93 95 88 82 81 79 76 74 70 60 48 38 33 29 29 30 31 28 23 20 8 13 20 10 12 8 5 7 5 1 359 352 358 359 359 358 356 351 348 342 341 344 343 341 342 344 344 342 339 340 339 338 339 338 336 333 329 324 320 315 311 305 301 298
152 151 149 147 142 142 143 145 145 143 137 136 129 124 128 124 118 114 100 96 98 91 93 90 84 82 82 79 76 73 64 54 44 40 37 34 32 28 22 22 18 14 21 16 13 11 7 8 5 3 353 355 355 355 356 355 353 352 348 348 344 338 344 344 342 342 347 345 344 341 341 340 339 338 336 336 334 327 325 321 317 314 310 309 307
154 151 149 148 146 141 139 138 140 138 132 120 116 121 122 115 116 104 102 103 99 98 90 91 90 85 84 80 79 76 71 58 49 44 41 36 29 19 19 14 18 17 19 16 12 10 5 5 0 1 357 358 351 350 354 352 349 349 347 351 348 349 349 348 346 342 349 349 346 343 343 342 339 338 337 337 333 328 325 320 317 315 312 310 306
162 154 153 149 148 148 147 148 144 135 135 132 133 133 125 125 117 113 109 104 104 99 98 97 97 97 97 96 92 81 71 62 54 46 42 32 24 17 19 4 16 14 15 16 15 15 10 2 359 1 1 357 347 348 352 350 347 351 347 353 354 354 352 348 347 348 350 352 350 349 349 346 343 336 336 334 332 330 326 325 320 318 317 313 307
151 149 149 146 143 142 145 140 141 141 137 136 136 129 125 123 118 120 114 111 107 111 118 117 119 123 115 104 97 90 81 72 60 55 40 27 21 14 15 11 20 16 16 15 12 7 357 2 359 0 357 357 347 346 351 350 350 356 354 1 359 355 351 352 351 346 352 354 352 353 353 348 339 338 337 334 333 333 331 329 324 324 320 315 311
136 135 135 137 136 133 140 142 144 144 141 137 136 130 128 125 125 127 119 119 121 131 141 140 147 145 127 109 98 96 94 79 67 64 45 24 19 16 19 10 27 13 17 5 360 6 6 6 5 0 359 2 350 343 350 352 354 0 360 2 360 358 356 354 350 345 348 347 351 351 353 349 343 340 338 336 336 339 335 329 329 329 326 325 319
149 149 144 141 142 144 146 144 143 144 146 140 136 131 128 130 135 136 133 134 145 155 161 161 167 153 119 107 103 99 105 99 89 65 47 37 21 23 359 6 14 18 17 4 8 15 8 11 7 1 3 6 351 345 350 351 354 0 5 1 4 1 358 355 352 345 343 341 337 340 342 343 344 340 338 339 339 343 337 335 333 330 328 325 322
141 141 140 139 137 134 141 147 153 154 148 142 139 133 134 136 143 140 141 154 167 178 179 161 141 124 116 109 113 112 112 115 114 77 48 32 12 26 14 14 11 16 15 14 16 18 14 5 356 1 0 357 355 350 348 350 353 358 6 1 358 6 2 352 347 341 343 344 341 339 338 342 343 341 341 342 342 343 341 336 336 334 331 328 321
150 147 141 138 143 147 153 159 158 150 148 147 139 135 137 140 145 148 162 176 176 166 156 149 127 114 106 105 105 121 121 123 131 104 63 41 33 33 18 23 16 13 24 25 21 11 10 2 355 354 356 359 359 354 344 349 351 356 2 9 357 6 359 349 337 338 341 342 346 344 338 342 343 342 343 343 344 344 344 345 343 335 330 324 323
135 139 141 140 144 146 149 151 150 149 150 147 143 140 140 143 147 165 183 172 157 159 146 132 127 126 124 117 118 115 120 124 103 78 64 40 12 30 35 23 14 24 36 38 24 12 5 358 354 355 359 352 351 352 350 344 350 355 1 4 10 356 356 346 347 342 340 342 345 345 339 339 341 343 344 345 344 346 345 351 344 340 339 340 338
146 149 149 143 142 147 152 156 157 153 152 152 144 143 148 152 161 184 174 157 158 151 147 140 133 133 133 132 134 135 134 125 105 98 97 58 15 35 21 25 30 28 37 36 23 10 7 4 356 357 352 353 350 344 353 350 350 353 359 359 359 0 356 355 351 342 344 334 331 332 330 338 341 344 345 345 346 348 351 348 345 346 345 341 338
147 145 146 142 142 146 148 153 155 155 153 153 147 148 154 161 182 173 151 143 143 151 143 143 147 144 134 136 139 137 132 127 131 118 96 79 32 21 34 31 28 38 35 33 18 6 6 7 3 352 352 350 347 348 344 354 353 353 356 357 355 355 357 356 348 343 340 337 337 339 335 336 342 345 346 347 347 352 351 348 350 349 347 345 346
150 150 148 144 143 144 143 147 154 155 159 158 153 151 160 173 180 146 156 149 147 149 152 158 160 157 153 146 121 135 145 146 148 139 136 111 30 24 42 2 37 36 38 37 11 6 10 357 358 356 345 345 346 346 351 349 352 353 355 355 352 354 351 354 353 342 343 340 337 336 338 342 343 346 347 350 352 354 350 349 350 351 353 353 354
142 145 150 144 140 139 141 144 153 159 160 161 158 152 163 181 164 166 158 149 144 151 162 172 167 165 164 149 143 157 155 160 152 146 165 174 145 66 65 18 32 34 37 37 11 7 5 359 359 352 345 339 342 349 351 351 349 348 351 354 348 346 349 348 348 344 340 340 342 340 341 344 347 349 350 356 354 351 345 348 352 356 359 357 356
151 151 145 143 141 141 144 145 152 171 158 162 155 164 162 153 165 164 154 150 154 160 165 163 167 163 164 163 162 175 185 180 164 149 168 223 182 199 47 17 18 26 22 22 8 5 358 355 358 346 343 338 349 347 352 351 351 349 350 346 348 340 343 349 349 346 345 346 340 341 337 335 340 343 348 346 348 348 354 358 360 359 359 358 357
147 150 144 141 144 148 151 152 156 169 161 154 151 151 151 151 156 157 154 153 158 163 164 168 166 163 167 175 178 181 179 187 202 183 179 220 254 184 160 216 303 22 41 3 356 349 351 353 346 340 338 348 348 349 352 350 340 340 342 348 347 349 349 346 351 346 340 338 335 332 336 344 350 354 357 359 358 359 358 358 360 358 358 356 356
149 155 149 148 150 152 154 153 156 163 157 148 148 148 147 146 154 154 155 159 169 173 165 154 157 155 169 180 184 183 189 186 199 219 234 205 188 203 220 264 249 191 174 219 320 303 319 312 301 316 337 350 349 349 345 328 336 352 2 359 351 353 351 352 348 349 339 342 346 346 352 352 357 355 358 357 358 360 358 356 358 359 358 357 359
153 151 152 145 149 149 153 154 156 160 160 149 147 153 155 147 148 156 159 163 164 156 150 164 168 168 167 172 185 195 191 188 190 209 229 260 248 226 213 210 269 240 217 220 208 235 269 293 308 283 211 316 321 305 317 337 350 355 358 2 360 357 359 359 352 345 355 352 354 356 357 356 352 352 356 357 354 354 354 355 356 357 358 358 1
152 145 147 147 149 150 149 151 156 161 161 152 147 150 146 151 157 163 164 156 152 153 159 163 171 178 180 181 183 192 196 182 198 206 210 224 275 284 247 237 241 260 260 250 231 251 281 267 238 297 309 285 306 331 342 342 350 355 357 358 0 360 2 357 356 353 1 5 356 356 356 356 355 351 357 349 353 353 355 353 353 354 357 358 360